This is the latest recevied weather packets stored in our database for station/object KE8WAY. If no packets are shown the sender has not sent any weather packets the latest 10 day(s).
| Time | Temp. | Humidity | Pressure | Rain* | Wind** | Luminosity | Snow |
|---|---|---|---|---|---|---|---|
| 1777591306 | 12.22° C | 41% | 1013.1 hPa | 0 mm | - | 39 W/m² | - |
| 1777591001 | 12.78° C | 38% | 1013 hPa | 0 mm | - | 57 W/m² | - |
| 1777590697 | 12.78° C | 37% | 1013.2 hPa | 0 mm | - | 129 W/m² | - |
| 1777590393 | 12.78° C | 38% | 1013.3 hPa | 0 mm | - | 62 W/m² | - |
| 1777590091 | 12.78° C | 40% | 1013.3 hPa | 0 mm | - | 66 W/m² | - |
| 1777589787 | 13.33° C | 36% | 1013 hPa | 0 mm | - | 96 W/m² | - |
| 1777589486 | 13.89° C | 37% | 1013 hPa | 0 mm | - | 193 W/m² | - |
| 1777589181 | 13.33° C | 36% | 1013.1 hPa | 0 mm | - | 122 W/m² | - |
| 1777588877 | 12.78° C | 39% | 1013.2 hPa | 0 mm | - | 224 W/m² | - |
| 1777588574 | 12.78° C | 40% | 1013.2 hPa | 0 mm | - | 85 W/m² | - |
| 1777588269 | 12.78° C | 41% | 1013.2 hPa | 0 mm | - | 94 W/m² | - |
| 1777587964 | 12.78° C | 40% | 1013.3 hPa | 0 mm | - | 94 W/m² | - |
| 1777587661 | 12.78° C | 40% | 1013.4 hPa | 0 mm | - | 90 W/m² | - |
| 1777587360 | 12.78° C | 39% | 1013.1 hPa | 0 mm | - | 98 W/m² | - |
| 1777587056 | 13.89° C | 38% | 1013.2 hPa | 0 mm | - | 124 W/m² | - |
| 1777586752 | 13.89° C | 37% | 1013.1 hPa | 0 mm | - | 333 W/m² | - |
| 1777586448 | 13.89° C | 38% | 1013.3 hPa | 0 mm | - | 320 W/m² | - |
| 1777586143 | 13.33° C | 38% | 1013 hPa | 0 mm | - | 353 W/m² | - |
| 1777585841 | 13.33° C | 38% | 1013 hPa | 0 mm | - | 130 W/m² | - |
| 1777585541 | 13.89° C | 36% | 1012.9 hPa | 0 mm | - | 183 W/m² | - |
| 1777585237 | 13.89° C | 37% | 1013.1 hPa | 0 mm | - | 468 W/m² | - |
| 1777584932 | 13.89° C | 38% | 1013 hPa | 0 mm | - | 484 W/m² | - |
| 1777584630 | 13.89° C | 39% | 1013 hPa | 0 mm | - | 518 W/m² | - |
| 1777584326 | 13.33° C | 37% | 1013.2 hPa | 0 mm | - | 504 W/m² | - |
| 1777584022 | 12.78° C | 39% | 1013 hPa | 0 mm | - | 170 W/m² | - |
* Rain latest hour (hover to see other rain measurements)
** Current wind speed in m/s (hover to see current wind gust speed)